Flag for Norway Weather past 2 weeks in Hommelvik, Norway

Now
51 °F

Drizzle. Cloudy.


Feels Like: 48 °F
Forecast: 44 / 49 °F
Wind: 6 mph from West

Location: Trondheim / Vaernes

Current Time: May 24, 2015 at 8:33:05 PM

Latest Report: May 24, 2015 at 7:00 PM


Visibility: 13 mi

Pressure: 29.69 "Hg

Humidity: 71%

Dew point: 41 °F

Location of HommelvikLocation

Historic Weather in Hommelvik — Graph

°F

Hommelvik temperature yesterday

Maximum temperature yesterday: 45 °F (at 12:00 PM)
Minimum temperature yesterday: 39 °F (at 8:00 PM)
Average temperature yesterday: 42 °F

Past Weeks' High & Low Weather Summary

 TemperatureHumidityPressure
High59 °F (May 24, 4:00 PM)95% (May 18, 2:00 AM)30.09 "Hg (May 18, 2:00 AM)
Low36 °F (May 16, 3:00 AM)33% (May 18, 4:00 PM)29.50 "Hg (May 12, 4:00 PM)
Average47 °F69%29.79 "Hg
* Reported May 9 7:00 PM — May 24 7:00 PM, Hommelvik, Weather by CustomWeather, © 2015

Note: Actual official high and low records may vary slightly from our data, if they occured in-between our weather recording intervals... More about our weather records

Advertising

Hommelvik weather history for previous 24 hours

 ConditionsComfort  
Time TempWeatherWind HumidityBarometerVisibility
7:00 PM
Sun, May 24
51 °FDrizzle. Cloudy.6 mph71%29.69 "Hg12 mi
6:00 PM53 °FRain showers. Cloudy.7 mph64%29.67 "Hg22 mi
5:00 PM59 °FLight rain. Scattered clouds.3 mph44%29.66 "Hg25 mi
4:00 PM59 °FPartly sunny.3 mph39%29.68 "Hg22 mi
3:00 PM58 °FPartly sunny.6 mph37%29.70 "Hg19 mi
2:00 PM55 °FPassing clouds.5 mph46%29.74 "Hg25 mi
1:00 PM52 °FOvercast.5 mph52%29.77 "Hg22 mi
12:00 PM49 °FOvercast.6 mph61%29.80 "Hg22 mi
11:00 AM46 °FScattered clouds.6 mph65%29.84 "Hg17 mi
10:00 AM45 °FOvercast.5 mph69%29.87 "Hg18 mi
9:00 AM43 °FOvercast.3 mph73%29.89 "Hg22 mi
8:00 AM42 °FOvercast.2 mph75%29.90 "Hg22 mi
7:00 AM41 °FOvercast.1 mph79%29.91 "Hg28 mi
6:00 AM41 °FOvercast.2 mph81%29.92 "Hg22 mi
5:00 AM40 °FOvercast.5 mph81%29.93 "Hg25 mi
4:00 AM41 °FOvercast.6 mph76%29.95 "Hg25 mi
3:00 AM40 °FOvercast.7 mph80%29.96 "Hg25 mi
2:00 AM40 °FOvercast.6 mph82%29.96 "Hg25 mi
1:00 AM40 °FFog.10 mph79%29.96 "Hg22 mi
12:00 AM40 °FOvercast.9 mph79%29.97 "Hg28 mi
10:00 PM
Sat, May 23
41 °FRain showers. Overcast.13 mph80%29.97 "Hg31 mi
9:00 PM41 °FOvercast.14 mph80%29.96 "Hg17 mi
8:00 PM39 °FLots of rain. Fog.10 mph87%29.97 "Hg3 mi
Weather by CustomWeather, © 2015

See weather overviewHow to use our weather pages